QPF
0.01 0.01 0.02 0.03 0.05 0.06 0.05 0.07 0.06 0.06 0.06 0.06 0.05 0.05 0.07 0.10 0.11 0.11 0.11 0.12 0.13 0.15 0.18 0.18 0.17 0.19 0.19 0.17 0.17 0.17 0.16 0.13 0.10 0.10 0.10 0.16 0.21 0.21 0.18 0.12 0.07 0.05 0.03
0.01 0.01 0.02 0.03 0.04 0.05 0.06 0.08 0.08 0.07 0.06 0.05 0.05 0.06 0.08 0.09 0.10 0.09 0.10 0.11 0.12 0.13 0.15 0.18 0.20 0.19 0.17 0.18 0.19 0.16 0.15 0.14 0.12 0.11 0.11 0.10 0.12 0.15 0.16 0.14 0.09 0.06 0.04
0.00 0.01 0.01 0.01 0.02 0.03 0.04 0.04 0.05 0.05 0.06 0.06 0.05 0.06 0.08 0.09 0.10 0.10 0.10 0.11 0.12 0.14 0.16 0.20 0.23 0.23 0.16 0.15 0.15 0.14 0.13 0.14 0.14 0.12 0.12 0.12 0.12 0.11 0.11 0.12 0.11 0.08 0.06
0.00 0.00 0.00 0.01 0.02 0.02 0.03 0.05 0.04 0.04 0.06 0.06 0.07 0.10 0.09 0.08 0.09 0.10 0.10 0.11 0.12 0.13 0.14 0.16 0.20 0.24 0.20 0.15 0.13 0.13 0.13 0.13 0.13 0.12 0.10 0.11 0.13 0.12 0.11 0.11 0.12 0.10 0.07
0.00 0.00 0.00 0.01 0.02 0.01 0.01 0.03 0.04 0.04 0.04 0.04 0.08 0.11 0.08 0.09 0.12 0.11 0.10 0.12 0.13 0.12 0.12 0.13 0.12 0.14 0.16 0.16 0.14 0.13 0.13 0.11 0.11 0.12 0.10 0.09 0.11 0.12 0.12 0.12 0.10 0.08 0.07
0.00 0.00 0.00 0.00 0.02 0.02 0.01 0.01 0.02 0.03 0.03 0.03 0.06 0.09 0.06 0.11 0.16 0.12 0.08 0.09 0.12 0.11 0.10 0.11 0.10 0.10 0.09 0.12 0.13 0.13 0.14 0.11 0.10 0.10 0.11 0.11 0.10 0.11 0.12 0.12 0.09 0.08 0.09
0.00 0.00 0.00 0.01 0.02 0.02 0.01 0.02 0.02 0.02 0.02 0.03 0.04 0.05 0.05 0.09 0.12 0.06 0.07 0.09 0.11 0.09 0.08 0.08 0.07 0.07 0.08 0.08 0.10 0.13 0.14 0.13 0.12 0.10 0.09 0.10 0.10 0.08 0.08 0.08 0.08 0.07 0.06
0.00 0.00 0.01 0.01 0.01 0.02 0.01 0.01 0.01 0.01 0.01 0.02 0.02 0.03 0.04 0.07 0.10 0.06 0.06 0.08 0.10 0.07 0.06 0.08 0.07 0.07 0.08 0.07 0.07 0.09 0.10 0.11 0.11 0.09 0.08 0.06 0.05 0.04 0.04 0.04 0.05 0.05 0.06
0.00 0.01 0.01 0.01 0.01 0.01 0.00 0.00 0.00 0.00 0.01 0.02 0.03 0.04 0.05 0.07 0.09 0.09 0.11 0.11 0.13 0.10 0.09 0.09 0.09 0.07 0.08 0.09 0.07 0.08 0.09 0.09 0.08 0.07 0.07 0.06 0.04 0.03 0.03 0.03 0.03 0.04 0.05
0.01 0.01 0.01 0.00 0.00 0.00 0.00 0.00 0.00 0.01 0.01 0.02 0.03 0.04 0.05 0.07 0.11 0.10 0.12 0.12 0.11 0.09 0.10 0.10 0.11 0.10 0.10 0.10 0.09 0.08 0.09 0.08 0.05 0.04 0.04 0.04 0.03 0.03 0.04 0.03 0.02 0.03 0.04
0.00 0.01 0.00 0.00 0.00 0.00 0.00 0.00 0.00 0.01 0.01 0.01 0.02 0.03 0.04 0.06 0.08 0.09 0.10 0.09 0.08 0.07 0.10 0.12 0.10 0.12 0.11 0.10 0.10 0.09 0.08 0.06 0.05 0.04 0.03 0.03 0.03 0.03 0.03 0.03 0.03 0.02 0.02
0.00 0.00 0.00 0.00 0.00 0.00 0.00 0.00 0.00 0.01 0.01 0.00 0.00 0.01 0.02 0.03 0.05 0.06 0.07 0.06 0.04 0.06 0.09 0.09 0.07 0.09 0.10 0.09 0.08 0.07 0.05 0.04 0.04 0.03 0.03 0.02 0.02 0.02 0.03 0.03 0.03 0.02 0.02
0.00 0.00 0.00 0.00 0.00 0.00 0.00 0.00 0.00 0.00 0.00 0.00 0.00 0.00 0.01 0.02 0.04 0.04 0.05 0.04 0.03 0.04 0.05 0.04 0.04 0.06 0.06 0.06 0.06 0.06 0.05 0.04 0.03 0.02 0.01 0.01 0.01 0.02 0.02 0.02 0.02 0.01 0.01
0.00 0.00 0.00 0.00 0.00 0.00 0.00 0.00 0.00 0.00 0.00 0.00 0.00 0.00 0.01 0.02 0.02 0.02 0.02 0.02 0.02 0.02 0.03 0.02 0.02 0.03 0.04 0.04 0.04 0.04 0.03 0.02 0.02 0.02 0.01 0.01 0.01 0.01 0.01 0.01 0.01 0.01 0.01
0.00 0.00 0.00 0.00 0.00 0.00 0.00 0.00 0.00 0.00 0.00 0.00 0.00 0.00 0.00 0.00 0.01 0.01 0.01 0.01 0.01 0.01 0.02 0.01 0.02 0.02 0.03 0.03 0.02 0.02 0.01 0.01 0.01 0.01 0.01 0.01 0.01 0.01 0.01 0.00 0.00 0.00 0.00
0.00 0.00 0.00 0.00 0.00 0.00 0.00 0.00 0.00 0.00 0.00 0.00 0.00 0.00 0.00 0.00 0.00 0.00 0.00 0.01 0.01 0.01 0.01 0.01 0.01 0.02 0.02 0.02 0.02 0.01 0.01 0.01 0.02 0.01 0.01 0.00 0.00 0.00 0.01 0.00 0.00 0.00 0.00
0.00 0.00 0.00 0.00 0.00 0.00 0.00 0.00 0.00 0.00 0.00 0.00 0.00 0.00 0.00 0.00 0.00 0.00 0.00 0.01 0.01 0.01 0.01 0.01 0.01 0.01 0.01 0.01 0.01 0.01 0.01 0.01 0.01 0.01 0.01 0.00 0.00 0.00 0.00 0.00 0.00 0.00 0.00
0.00 0.00 0.00 0.00 0.00 0.00 0.00 0.00 0.00 0.00 0.00 0.00 0.00 0.00 0.00 0.00 0.00 0.00 0.00 0.00 0.01 0.01 0.01 0.01 0.01 0.00 0.00 0.00 0.01 0.01 0.01 0.01 0.01 0.01 0.01 0.00 0.00 0.00 0.00 0.00 0.00 0.00 0.00
0.00 0.00 0.00 0.00 0.00 0.00 0.00 0.00 0.00 0.00 0.00 0.00 0.00 0.00 0.00 0.00 0.00 0.00 0.00 0.00 0.00 0.00 0.00 0.01 0.01 0.01 0.00 0.00 0.01 0.01 0.01 0.01 0.01 0.00 0.00 0.00 0.00 0.00 0.00 0.00 0.00 0.00 0.00
0.00 0.00 0.00 0.00 0.00 0.00 0.00 0.00 0.00 0.00 0.00 0.00 0.00 0.00 0.00 0.00 0.00 0.00 0.00 0.00 0.00 0.00 0.00 0.01 0.01 0.01 0.00 0.00 0.00 0.01 0.01 0.01 0.01 0.01 0.01 0.01 0.00 0.00 0.00 0.00 0.00 0.00 0.00
0.00 0.00 0.00 0.00 0.00 0.00 0.00 0.00 0.00 0.00 0.00 0.00 0.00 0.00 0.00 0.00 0.00 0.00 0.00 0.00 0.00 0.00 0.00 0.00 0.00 0.00 0.00 0.00 0.00 0.00 0.00 0.00 0.00 0.01 0.01 0.01 0.01 0.00 0.00 0.00 0.00 0.00 0.00
0.00 0.00 0.00 0.00 0.00 0.00 0.00 0.00 0.00 0.00 0.00 0.00 0.00 0.00 0.00 0.00 0.00 0.00 0.00 0.00 0.00 0.00 0.00 0.00 0.00 0.00 0.00 0.00 0.00 0.00 0.00 0.00 0.00 0.00 0.00 0.00 0.00 0.00 0.00 0.00 0.00 0.00 0.00
0.00 0.00 0.00 0.00 0.00 0.00 0.00 0.00 0.00 0.00 0.00 0.00 0.00 0.00 0.00 0.00 0.00 0.00 0.00 0.00 0.00 0.00 0.00 0.00 0.00 0.00 0.00 0.00 0.00 0.00 0.00 0.00 0.00 0.00 0.00 0.01 0.01 0.00 0.00 0.00 0.00 0.00 0.00
0.00 0.00 0.00 0.00 0.00 0.00 0.00 0.00 0.00 0.00 0.00 0.00 0.00 0.00 0.00 0.00 0.00 0.00 0.00 0.00 0.00 0.00 0.00 0.00 0.00 0.00 0.00 0.00 0.00 0.00 0.00 0.00 0.00 0.00 0.00 0.00 0.00 0.01 0.01 0.01 0.00 0.00 0.00
0.00 0.00 0.00 0.00 0.00 0.00 0.00 0.00 0.00 0.00 0.00 0.00 0.00 0.00 0.00 0.00 0.00 0.00 0.00 0.00 0.00 0.00 0.00 0.00 0.00 0.00 0.00 0.00 0.00 0.00 0.00 0.00 0.00 0.00 0.00 0.00 0.00 0.00 0.00 0.00 0.00 0.00 0.00
0.00 0.00 0.00 0.00 0.00 0.00 0.00 0.00 0.00 0.00 0.00 0.00 0.00 0.00 0.00 0.00 0.00 0.00 0.00 0.00 0.00 0.00 0.00 0.00 0.00 0.00 0.00 0.00 0.00 0.00 0.00 0.00 0.00 0.00 0.00 0.00 0.00 0.00 0.00 0.00 0.00 0.00 0.00
MSLP
1015.81 1015.62 1015.44 1015.24 1014.99 1014.65 1014.22 1013.70 1013.09 1012.43 1011.73 1011.01 1010.33 1009.69 1009.12 1008.64 1008.28 1008.04 1007.94 1007.99 1008.19 1008.52 1008.96 1009.49 1010.09 1010.71 1011.34 1011.95 1012.53 1013.06 1013.55 1013.99 1014.38 1014.75 1015.09 1015.40 1015.69 1015.97 1016.24 1016.50 1016.77 1017.04 1017.32
1015.94 1015.76 1015.58 1015.37 1015.12 1014.79 1014.38 1013.88 1013.31 1012.68 1012.01 1011.32 1010.64 1010.00 1009.41 1008.90 1008.49 1008.20 1008.03 1008.00 1008.11 1008.35 1008.70 1009.14 1009.66 1010.22 1010.80 1011.38 1011.95 1012.50 1013.03 1013.53 1014.01 1014.46 1014.90 1015.31 1015.70 1016.06 1016.40 1016.72 1017.03 1017.33 1017.64
1016.18 1015.99 1015.81 1015.59 1015.32 1014.98 1014.57 1014.09 1013.54 1012.94 1012.31 1011.65 1010.99 1010.36 1009.76 1009.23 1008.78 1008.43 1008.20 1008.09 1008.12 1008.27 1008.54 1008.90 1009.33 1009.83 1010.35 1010.89 1011.45 1012.00 1012.55 1013.09 1013.63 1014.16 1014.68 1015.18 1015.66 1016.11 1016.53 1016.93 1017.30 1017.65 1018.00
1016.48 1016.29 1016.09 1015.84 1015.54 1015.18 1014.76 1014.28 1013.75 1013.18 1012.57 1011.95 1011.32 1010.70 1010.11 1009.57 1009.09 1008.71 1008.42 1008.26 1008.22 1008.29 1008.49 1008.77 1009.14 1009.56 1010.03 1010.53 1011.05 1011.59 1012.14 1012.71 1013.28 1013.86 1014.45 1015.02 1015.57 1016.10 1016.60 1017.07 1017.52 1017.94 1018.35
1016.80 1016.61 1016.38 1016.09 1015.75 1015.36 1014.91 1014.42 1013.90 1013.35 1012.78 1012.19 1011.60 1011.01 1010.44 1009.90 1009.42 1009.02 1008.70 1008.49 1008.41 1008.43 1008.57 1008.79 1009.10 1009.47 1009.88 1010.33 1010.81 1011.32 1011.85 1012.41 1012.99 1013.59 1014.21 1014.82 1015.43 1016.02 1016.59 1017.13 1017.66 1018.16 1018.64
1017.11 1016.90 1016.64 1016.31 1015.92 1015.48 1015.01 1014.51 1013.99 1013.46 1012.92 1012.38 1011.83 1011.28 1010.75 1010.24 1009.77 1009.37 1009.04 1008.82 1008.71 1008.70 1008.80 1008.99 1009.25 1009.57 1009.93 1010.33 1010.76 1011.22 1011.72 1012.24 1012.80 1013.39 1014.01 1014.64 1015.28 1015.91 1016.53 1017.13 1017.72 1018.29 1018.85
1017.36 1017.15 1016.85 1016.48 1016.05 1015.58 1015.08 1014.57 1014.06 1013.56 1013.06 1012.56 1012.06 1011.57 1011.07 1010.60 1010.16 1009.78 1009.47 1009.25 1009.13 1009.12 1009.20 1009.36 1009.59 1009.87 1010.19 1010.54 1010.92 1011.33 1011.77 1012.25 1012.76 1013.32 1013.91 1014.53 1015.17 1015.82 1016.46 1017.10 1017.73 1018.36 1018.97
1017.54 1017.32 1017.01 1016.62 1016.17 1015.68 1015.17 1014.67 1014.18 1013.71 1013.26 1012.81 1012.36 1011.91 1011.47 1011.04 1010.64 1010.29 1010.00 1009.80 1009.69 1009.68 1009.75 1009.91 1010.12 1010.37 1010.66 1010.97 1011.30 1011.65 1012.04 1012.46 1012.92 1013.43 1013.97 1014.56 1015.17 1015.81 1016.45 1017.09 1017.74 1018.38 1019.01
1017.64 1017.43 1017.12 1016.74 1016.29 1015.82 1015.34 1014.87 1014.42 1013.99 1013.58 1013.18 1012.79 1012.39 1011.98 1011.59 1011.22 1010.89 1010.63 1010.45 1010.36 1010.36 1010.45 1010.60 1010.80 1011.04 1011.31 1011.58 1011.87 1012.18 1012.51 1012.88 1013.28 1013.73 1014.23 1014.76 1015.33 1015.93 1016.54 1017.16 1017.78 1018.40 1019.02
1017.66 1017.48 1017.21 1016.86 1016.47 1016.04 1015.61 1015.20 1014.81 1014.43 1014.08 1013.72 1013.36 1012.99 1012.62 1012.25 1011.90 1011.60 1011.36 1011.19 1011.12 1011.13 1011.22 1011.38 1011.59 1011.82 1012.07 1012.32 1012.59 1012.86 1013.15 1013.46 1013.82 1014.22 1014.66 1015.14 1015.66 1016.20 1016.75 1017.32 1017.88 1018.46 1019.03
1017.63 1017.49 1017.28 1017.00 1016.68 1016.34 1016.00 1015.66 1015.34 1015.03 1014.72 1014.40 1014.07 1013.72 1013.36 1013.00 1012.66 1012.36 1012.13 1011.97 1011.91 1011.93 1012.03 1012.20 1012.41 1012.64 1012.88 1013.13 1013.37 1013.62 1013.88 1014.17 1014.49 1014.84 1015.24 1015.67 1016.13 1016.60 1017.09 1017.58 1018.08 1018.57 1019.07
1017.54 1017.46 1017.33 1017.14 1016.92 1016.69 1016.44 1016.20 1015.96 1015.71 1015.45 1015.16 1014.85 1014.50 1014.14 1013.77 1013.43 1013.13 1012.89 1012.74 1012.68 1012.71 1012.82 1012.99 1013.20 1013.44 1013.68 1013.92 1014.15 1014.39 1014.64 1014.91 1015.20 1015.53 1015.89 1016.28 1016.68 1017.10 1017.52 1017.94 1018.35 1018.75 1019.16
1017.40 1017.39 1017.34 1017.25 1017.14 1017.02 1016.88 1016.74 1016.57 1016.39 1016.17 1015.91 1015.60 1015.25 1014.88 1014.50 1014.15 1013.84 1013.60 1013.45 1013.39 1013.43 1013.54 1013.72 1013.93 1014.17 1014.41 1014.64 1014.87 1015.11 1015.34 1015.60 1015.88 1016.19 1016.53 1016.89 1017.26 1017.63 1018.00 1018.34 1018.68 1019.00 1019.31
1017.20 1017.24 1017.27 1017.28 1017.28 1017.26 1017.23 1017.17 1017.09 1016.96 1016.78 1016.53 1016.23 1015.89 1015.51 1015.12 1014.76 1014.45 1014.22 1014.07 1014.02 1014.06 1014.18 1014.35 1014.57 1014.80 1015.03 1015.26 1015.48 1015.71 1015.94 1016.19 1016.47 1016.77 1017.10 1017.44 1017.79 1018.13 1018.46 1018.76 1019.03 1019.29 1019.53
1016.93 1017.02 1017.11 1017.20 1017.28 1017.35 1017.40 1017.42 1017.40 1017.32 1017.17 1016.95 1016.67 1016.33 1015.96 1015.58 1015.23 1014.93 1014.72 1014.59 1014.55 1014.60 1014.72 1014.89 1015.10 1015.32 1015.54 1015.75 1015.96 1016.17 1016.40 1016.64 1016.91 1017.21 1017.54 1017.88 1018.22 1018.55 1018.86 1019.13 1019.38 1019.60 1019.80
1016.60 1016.71 1016.84 1016.98 1017.12 1017.25 1017.37 1017.44 1017.47 1017.43 1017.31 1017.12 1016.86 1016.54 1016.20 1015.85 1015.54 1015.28 1015.09 1014.99 1014.98 1015.05 1015.17 1015.34 1015.54 1015.74 1015.93 1016.12 1016.31 1016.50 1016.70 1016.93 1017.20 1017.50 1017.82 1018.17 1018.52 1018.85 1019.16 1019.44 1019.68 1019.89 1020.07
1016.19 1016.32 1016.47 1016.63 1016.81 1016.98 1017.13 1017.24 1017.30 1017.29 1017.21 1017.05 1016.82 1016.55 1016.25 1015.96 1015.70 1015.50 1015.36 1015.31 1015.33 1015.42 1015.55 1015.71 1015.89 1016.07 1016.23 1016.39 1016.54 1016.70 1016.88 1017.10 1017.35 1017.64 1017.97 1018.32 1018.67 1019.02 1019.35 1019.65 1019.90 1020.13 1020.32
1015.74 1015.87 1016.02 1016.20 1016.39 1016.57 1016.74 1016.87 1016.95 1016.96 1016.91 1016.79 1016.61 1016.39 1016.16 1015.94 1015.75 1015.61 1015.54 1015.54 1015.60 1015.71 1015.85 1016.01 1016.17 1016.32 1016.45 1016.57 1016.69 1016.81 1016.97 1017.16 1017.39 1017.67 1017.99 1018.35 1018.71 1019.08 1019.42 1019.74 1020.03 1020.27 1020.49
1015.24 1015.38 1015.53 1015.71 1015.90 1016.09 1016.26 1016.40 1016.49 1016.52 1016.49 1016.41 1016.28 1016.13 1015.97 1015.82 1015.71 1015.65 1015.64 1015.69 1015.79 1015.92 1016.07 1016.22 1016.36 1016.48 1016.58 1016.67 1016.76 1016.86 1016.98 1017.15 1017.37 1017.63 1017.94 1018.29 1018.66 1019.03 1019.39 1019.72 1020.03 1020.31 1020.55
1014.70 1014.86 1015.03 1015.22 1015.41 1015.59 1015.75 1015.89 1015.98 1016.03 1016.02 1015.98 1015.90 1015.80 1015.71 1015.64 1015.60 1015.60 1015.65 1015.75 1015.87 1016.02 1016.17 1016.32 1016.45 1016.55 1016.63 1016.70 1016.76 1016.85 1016.95 1017.10 1017.30 1017.55 1017.85 1018.18 1018.54 1018.90 1019.26 1019.60 1019.92 1020.21 1020.47
1014.13 1014.32 1014.52 1014.72 1014.92 1015.10 1015.26 1015.39 1015.49 1015.54 1015.55 1015.53 1015.50 1015.45 1015.41 1015.39 1015.41 1015.46 1015.56 1015.68 1015.83 1015.99 1016.14 1016.28 1016.40 1016.50 1016.57 1016.64 1016.70 1016.78 1016.89 1017.03 1017.22 1017.45 1017.73 1018.04 1018.37 1018.71 1019.05 1019.38 1019.69 1019.98 1020.26
1013.51 1013.75 1013.99 1014.22 1014.43 1014.62 1014.78 1014.91 1015.01 1015.06 1015.09 1015.09 1015.08 1015.06 1015.06 1015.08 1015.13 1015.22 1015.33 1015.47 1015.63 1015.79 1015.95 1016.09 1016.21 1016.31 1016.40 1016.48 1016.56 1016.65 1016.77 1016.93 1017.12 1017.34 1017.60 1017.89 1018.18 1018.49 1018.79 1019.09 1019.38 1019.65 1019.92
1012.82 1013.12 1013.40 1013.67 1013.90 1014.11 1014.28 1014.42 1014.51 1014.57 1014.60 1014.61 1014.61 1014.61 1014.63 1014.67 1014.73 1014.83 1014.95 1015.09 1015.24 1015.40 1015.56 1015.71 1015.84 1015.96 1016.08 1016.19 1016.31 1016.45 1016.60 1016.78 1016.98 1017.21 1017.45 1017.71 1017.97 1018.24 1018.50 1018.76 1019.01 1019.25 1019.50
1012.05 1012.40 1012.73 1013.04 1013.30 1013.53 1013.71 1013.85 1013.95 1014.01 1014.04 1014.05 1014.06 1014.06 1014.08 1014.12 1014.19 1014.28 1014.39 1014.52 1014.67 1014.83 1014.99 1015.14 1015.30 1015.46 1015.61 1015.78 1015.95 1016.14 1016.34 1016.56 1016.79 1017.03 1017.27 1017.51 1017.74 1017.97 1018.19 1018.40 1018.61 1018.82 1019.04
1011.21 1011.60 1011.96 1012.29 1012.58 1012.83 1013.02 1013.17 1013.26 1013.33 1013.36 1013.37 1013.37 1013.38 1013.40 1013.43 1013.49 1013.56 1013.66 1013.79 1013.93 1014.08 1014.24 1014.42 1014.60 1014.80 1015.00 1015.23 1015.46 1015.71 1015.97 1016.24 1016.50 1016.77 1017.02 1017.25 1017.47 1017.67 1017.85 1018.03 1018.20 1018.39 1018.58
1010.35 1010.74 1011.11 1011.45 1011.75 1012.00 1012.20 1012.34 1012.44 1012.50 1012.54 1012.55 1012.55 1012.55 1012.57 1012.59 1012.64 1012.71 1012.80 1012.91 1013.04 1013.19 1013.37 1013.56 1013.77 1014.00 1014.26 1014.53 1014.83 1015.14 1015.46 1015.78 1016.09 1016.39 1016.66 1016.91 1017.13 1017.32 1017.49 1017.65 1017.80 1017.96 1018.14
Thickness
5639 5637 5636 5635 5636 5636 5637 5638 5639 5642 5645 5648 5651 5654 5657 5661 5666 5670 5674 5678 5682 5685 5688 5691 5693 5695 5697 5698 5700 5701 5701 5702 5699 5699 5703 5704 5705 5706 5705 5704 5702 5700 5699
5639 5637 5635 5634 5634 5634 5634 5635 5637 5639 5641 5644 5647 5649 5652 5656 5660 5663 5667 5671 5675 5678 5682 5685 5688 5690 5692 5693 5694 5696 5697 5698 5697 5694 5695 5696 5698 5699 5699 5697 5695 5693 5692
5640 5637 5635 5634 5633 5632 5633 5633 5634 5636 5637 5640 5642 5644 5647 5651 5654 5658 5662 5666 5669 5673 5676 5680 5683 5686 5687 5688 5690 5691 5692 5693 5693 5691 5689 5690 5691 5692 5691 5690 5688 5686 5684
5641 5638 5635 5633 5632 5631 5631 5632 5632 5633 5634 5636 5638 5640 5644 5647 5650 5654 5657 5660 5664 5668 5672 5675 5679 5681 5684 5684 5685 5686 5687 5687 5687 5686 5685 5684 5684 5685 5684 5681 5679 5677 5675
5642 5639 5636 5634 5633 5632 5631 5630 5630 5631 5632 5633 5634 5637 5640 5643 5646 5649 5652 5655 5658 5661 5665 5669 5673 5677 5679 5681 5682 5682 5682 5682 5681 5681 5680 5679 5678 5677 5677 5676 5673 5669 5666
5644 5640 5638 5636 5633 5632 5630 5629 5628 5628 5629 5630 5631 5633 5636 5639 5643 5646 5648 5649 5651 5655 5658 5661 5666 5670 5673 5675 5678 5679 5679 5679 5678 5677 5676 5676 5675 5675 5673 5670 5667 5664 5658
5646 5643 5640 5637 5634 5632 5631 5629 5627 5626 5627 5627 5628 5629 5631 5635 5640 5642 5644 5645 5646 5648 5652 5655 5659 5663 5666 5668 5671 5673 5673 5675 5677 5676 5674 5673 5672 5671 5669 5664 5662 5660 5656
5648 5645 5641 5638 5635 5633 5631 5628 5627 5626 5625 5624 5625 5626 5628 5631 5635 5637 5639 5640 5641 5643 5646 5649 5653 5656 5660 5662 5664 5665 5666 5667 5669 5671 5671 5671 5670 5668 5666 5663 5658 5653 5648
5650 5647 5644 5640 5637 5634 5631 5629 5627 5625 5624 5623 5623 5624 5625 5627 5630 5633 5635 5635 5636 5637 5641 5645 5648 5651 5655 5658 5658 5658 5658 5660 5662 5664 5665 5665 5664 5663 5661 5657 5651 5647 5641
5654 5651 5647 5643 5640 5636 5633 5630 5628 5626 5624 5623 5622 5621 5622 5623 5626 5629 5630 5631 5631 5633 5635 5639 5643 5647 5650 5652 5653 5653 5652 5653 5655 5656 5657 5656 5656 5656 5655 5653 5650 5644 5639
5659 5655 5651 5647 5643 5639 5635 5632 5629 5626 5624 5622 5620 5619 5619 5620 5622 5625 5627 5627 5627 5629 5630 5633 5636 5641 5644 5646 5647 5648 5648 5648 5648 5649 5648 5648 5648 5647 5647 5646 5645 5643 5638
5663 5658 5653 5649 5646 5642 5637 5633 5630 5627 5624 5621 5620 5618 5618 5618 5620 5621 5622 5624 5625 5626 5626 5628 5631 5635 5638 5639 5641 5642 5643 5643 5642 5642 5641 5639 5639 5639 5638 5638 5637 5636 5636
5666 5661 5656 5652 5648 5644 5639 5635 5631 5628 5625 5622 5620 5618 5617 5617 5617 5619 5620 5621 5622 5623 5624 5626 5628 5630 5632 5633 5634 5636 5636 5636 5636 5635 5633 5631 5632 5632 5632 5631 5630 5630 5629
5669 5664 5659 5655 5650 5645 5641 5637 5633 5629 5626 5624 5621 5619 5618 5617 5617 5618 5619 5620 5621 5621 5622 5623 5625 5626 5627 5628 5628 5629 5630 5631 5630 5629 5627 5626 5627 5626 5626 5626 5624 5624 5622
5671 5667 5662 5658 5653 5648 5644 5639 5636 5632 5630 5627 5624 5622 5620 5619 5619 5620 5619 5620 5620 5620 5621 5621 5621 5621 5621 5622 5622 5623 5624 5625 5624 5623 5623 5622 5622 5621 5620 5620 5620 5619 5616
5674 5669 5664 5660 5655 5651 5646 5642 5640 5637 5635 5632 5630 5627 5625 5624 5623 5623 5623 5622 5622 5622 5620 5618 5617 5618 5618 5618 5618 5619 5619 5620 5620 5620 5620 5619 5618 5618 5617 5616 5616 5614 5612
5677 5673 5668 5663 5659 5654 5650 5646 5642 5640 5638 5636 5634 5632 5630 5628 5627 5626 5625 5624 5623 5623 5619 5617 5616 5616 5616 5616 5616 5616 5616 5617 5618 5618 5618 5617 5616 5615 5614 5613 5612 5610 5608
5681 5677 5672 5667 5663 5658 5654 5650 5647 5643 5640 5638 5637 5635 5633 5631 5630 5629 5627 5626 5623 5621 5619 5618 5617 5616 5616 5616 5616 5616 5616 5616 5616 5616 5616 5616 5615 5614 5612 5611 5609 5608 5606
5682 5678 5674 5670 5666 5662 5658 5654 5651 5647 5644 5641 5639 5637 5636 5634 5633 5631 5629 5626 5623 5622 5620 5619 5619 5618 5617 5617 5617 5616 5616 5615 5615 5615 5614 5614 5614 5613 5611 5609 5608 5607 5605
5684 5681 5677 5672 5668 5664 5660 5657 5653 5650 5647 5644 5641 5639 5637 5635 5633 5632 5630 5628 5626 5624 5623 5621 5621 5620 5619 5618 5617 5617 5616 5615 5614 5614 5613 5613 5613 5612 5611 5609 5607 5605 5603
5685 5681 5679 5673 5669 5666 5663 5660 5657 5653 5650 5647 5645 5644 5641 5638 5635 5634 5632 5631 5629 5628 5626 5624 5623 5622 5620 5619 5618 5617 5617 5615 5615 5614 5613 5613 5612 5611 5610 5609 5607 5605 5603
5684 5681 5677 5674 5670 5667 5664 5662 5659 5656 5653 5651 5648 5646 5645 5640 5638 5636 5635 5634 5633 5632 5631 5628 5626 5624 5623 5622 5620 5619 5617 5616 5615 5614 5613 5613 5612 5610 5609 5607 5605 5603 5602
5683 5680 5676 5673 5671 5669 5666 5663 5660 5658 5655 5653 5651 5648 5646 5643 5641 5640 5638 5637 5636 5634 5633 5631 5629 5627 5626 5624 5623 5622 5620 5618 5617 5616 5614 5613 5611 5609 5608 5606 5605 5602 5600
5682 5679 5675 5672 5670 5667 5665 5663 5661 5659 5657 5655 5653 5650 5648 5646 5644 5643 5641 5640 5638 5636 5634 5632 5631 5629 5628 5626 5624 5623 5622 5621 5619 5617 5616 5614 5611 5610 5607 5606 5604 5603 5600
5680 5677 5674 5671 5669 5666 5664 5663 5661 5660 5658 5656 5655 5653 5651 5649 5646 5645 5643 5641 5639 5637 5636 5634 5632 5631 5629 5628 5626 5624 5623 5621 5620 5618 5616 5614 5611 5609 5607 5605 5603 5601 5599
5677 5674 5672 5669 5666 5665 5663 5661 5660 5659 5658 5657 5656 5654 5652 5650 5648 5647 5645 5642 5640 5638 5637 5635 5634 5632 5630 5629 5627 5625 5623 5621 5619 5617 5615 5613 5610 5608 5606 5604 5603 5600 5598